[[{"header":{"parameterUnit":"m.s-1","parameterCategory":1,"la1":30.2991,"la2":30.254,"lo1":-89.0895,"lo2":-89.0444,"dy":0.0017,"dx":0.0017,"nx":28,"ny":28,"refTime":"2024-04-02T21:00:00:Z","depth":0,"parameterNumber":2,"parameterNumberName":"U-component_of_WINDS"},"data":[0,0,0,0,0,0,0,0,0,0,0,0,0,0,0,0,0,0,0,0,0,0,0,0,0,0,0,0,0,0,0,0,0,0,0,0,0,0,0,0,0,0,0,0,0,0,0,0,0,0,0,0,0,0,0,0,0,0,4.7135,4.7136,0,4.7242,4.7243,4.7245,4.7237,4.7236,4.7234,4.7233,4.7342,4.7346,4.735,0,0,0,0,0,0,0,0,0,0,0,0,0,4.6926,4.693,4.7135,4.7136,4.7138,4.7242,4.7243,4.7245,4.7238,4.7236,4.7234,4.7232,4.734,4.7345,4.7351,0,0,0,0,0,0,0,0,0,0,0,0,0,4.7023,4.6931,4.7135,4.7147,4.7149,4.7242,4.7243,4.7245,4.7238,4.7236,4.7233,4.7231,4.7338,4.7345,4.7351,4.7439,0,0,4.7371,4.7374,0,0,0,0,0,0,0,0,4.7018,4.7031,4.7144,4.7146,4.7149,4.7224,4.721,4.731,4.7239,4.7204,4.7233,4.723,4.7304,4.7314,4.7339,4.7444,4.7449,4.7372,4.7376,4.7379,4.7381,0,0,0,0,0,0,0,4.7011,4.7026,4.7177,4.7145,4.7148,4.7147,4.7158,4.7229,4.7266,4.7207,4.7207,4.722,4.7305,4.7332,4.7341,4.745,4.7372,4.7378,4.7382,4.7384,4.7636,4.7638,0,0,0,0,0,0,4.7001,4.7021,4.7174,4.7181,4.7076,4.7153,4.7165,4.7202,4.7265,4.7273,4.7221,4.7219,4.7322,4.7334,4.7345,4.7454,4.7379,4.7385,4.7389,4.7633,4.7636,4.7639,0,0,0,0,0,0,4.6997,4.7015,4.717,4.7101,4.712,4.7159,4.72,4.7206,4.7233,4.7276,4.7283,4.7242,4.7321,4.7336,4.7416,4.7457,4.7388,4.7394,4.763,4.7634,4.7638,4.767,0,0,0,0,0,0,4.6991,4.7014,4.7047,4.7101,4.7124,4.7239,4.7203,4.7209,4.7244,4.7242,4.7298,4.7305,4.732,4.7407,4.7423,4.7465,4.7399,4.7626,4.7632,4.7636,4.7666,4.7675,4.7683,0,0,0,0,0,4.6984,4.7051,4.7049,4.7067,4.7166,4.7241,4.7254,4.7271,4.7247,4.7282,4.731,4.7303,4.745,4.7415,4.7433,4.7478,4.7624,4.763,4.7636,4.7662,4.7673,4.7683,0,0,0,0,0,0,4.6999,4.7058,4.7056,4.7143,4.7187,4.724,4.7283,4.7282,4.7333,4.7329,4.7347,4.736,4.7442,4.7468,4.7427,4.7567,4.7534,4.7544,4.7547,4.7558,4.7567,4.7559,4.7404,0,0,0,0,0,4.7013,4.7069,4.7117,4.7189,4.7212,4.7244,4.7277,4.7287,4.7333,4.7351,4.7385,4.7431,4.7488,4.7524,4.7579,4.7669,4.7682,4.7709,4.7718,4.7725,4.7733,4.7786,4.7799,4.766,4.766,4.7659,0,0,4.7041,4.7081,4.7114,4.7194,4.7229,4.7287,4.7259,4.7321,4.7365,4.7361,4.7439,4.7466,4.7518,4.7605,4.7644,4.7629,4.7775,4.7733,4.7738,4.7743,4.7793,4.7806,4.7818,4.7664,4.7663,4.7662,0,0,4.7123,4.7158,4.7223,4.726,4.7314,4.7335,4.7351,4.7404,4.7422,4.7502,4.75,4.7553,4.7649,4.7687,4.7719,4.7818,4.7814,4.7836,4.788,4.7931,4.7942,4.7952,4.7989,4.8002,4.7844,4.7844,4.7844,0,4.7152,4.7239,4.7256,4.732,4.7355,4.7355,4.7422,4.7456,4.7526,4.7551,4.7532,4.7656,4.769,4.7787,4.7811,4.7837,4.7856,4.7829,4.7939,4.7949,4.7959,4.7994,4.8008,4.7846,4.7846,4.7846,4.7846,0,4.7272,4.7333,4.7379,4.7447,4.7488,4.7552,4.758,4.762,4.7626,4.765,4.7732,4.7774,4.7838,4.7862,4.7868,4.796,4.7949,4.7935,4.7902,4.7974,4.8007,4.8021,4.785,4.7849,4.7848,4.7848,0,0,4.7366,4.7444,4.7461,4.7493,4.7554,4.7601,4.7667,4.773,4.7764,4.7813,4.7869,4.7952,4.794,4.7976,4.7987,4.8032,4.811,4.8012,4.8014,4.803,4.8216,4.8227,4.8242,4.8108,4.811,4.8113,4.8212,0,4.7455,4.7571,4.759,4.7692,4.7749,4.7751,4.7808,4.7853,4.7877,4.793,4.7956,4.8016,4.7995,4.8017,4.8061,4.8091,4.8148,4.8084,4.8161,4.8163,4.8148,4.8259,4.827,4.8362,4.8225,4.8227,4.8229,0,4.7573,4.7626,4.7734,4.779,4.7815,4.7866,4.7927,4.7977,4.8028,4.8042,4.8084,4.8091,4.816,4.8124,4.822,4.8177,4.821,4.823,4.8234,4.8242,4.8201,4.8271,4.8391,4.8405,4.8249,4.8248,4.8246,0,4.7632,4.773,4.7809,4.7836,4.7902,4.7938,4.7968,4.8016,4.8054,4.8107,4.8132,4.8193,4.8226,4.8273,4.8296,4.8268,4.8392,4.8357,4.8406,4.8406,4.8432,4.843,4.856,4.8453,4.8452,4.8452,4.8452,0,4.773,4.7796,4.7836,4.7884,4.7959,4.7981,4.8055,4.8083,4.8127,4.8181,4.8186,4.8237,4.8264,4.832,4.8338,4.8416,4.8431,4.8446,4.845,4.8445,4.8444,4.8467,4.8462,4.8456,4.8455,4.8454,4.8454,0,4.7808,4.7837,4.7923,4.798,4.7995,4.8048,4.8097,4.8144,4.8169,4.8238,4.8256,4.8295,4.836,4.8388,4.8468,4.8481,4.8571,4.857,4.8554,4.8555,4.8604,4.8599,4.8753,4.8776,4.8652,4.8654,4.8655,0,4.7869,4.792,4.7983,4.802,4.8051,4.811,4.8149,4.8173,4.8214,4.8277,4.8317,4.8383,4.8437,4.8542,4.8578,4.864,4.8641,4.8691,4.865,4.8645,4.8643,4.864,4.8646,4.8698,4.87,4.8701,4.8701,0,4.7974,4.7987,4.8043,4.8105,4.8152,4.8201,4.825,4.828,4.8312,4.8357,4.8425,4.8467,4.855,4.8616,4.868,4.8711,4.8712,4.8714,4.8729,4.8725,4.8714,4.8722,4.8575,4.871,4.8709,4.8709,4.8708,4.8708,4.8046,4.8093,4.8145,4.8208,4.8248,4.8293,4.8341,4.8373,4.843,4.85,4.851,4.8583,4.8635,4.8722,4.8756,4.8813,4.8801,4.8822,4.8828,4.8833,4.8836,4.8705,4.8825,4.8825,4.8825,4.8824,4.8824,0,4.8153,4.8187,4.8245,4.8313,4.8363,4.8361,4.8415,4.8457,4.8521,4.8569,4.8623,4.8702,4.8766,4.8808,4.8874,4.8912,4.8914,4.8928,4.8926,4.8933,4.8843,4.8824,4.8926,4.8926,4.8926,4.8926,4.8925,4.8925,4.8214,4.8293,4.8312,4.8412,4.8446,4.8517,4.8549,4.8592,4.8631,4.8719,4.8773,4.88,4.8846,4.8915,4.8975,4.8986,4.901,4.9025,4.9035,4.895,4.8939,4.8929,4.8912,4.903,4.903,4.9121,4.9122,4.9122]},{"header":{"parameterUnit":"m.s-1","parameterCategory":1,"la1":30.2991,"la2":30.254,"lo1":-89.0895,"lo2":-89.0444,"dy":0.0017,"dx":0.0017,"nx":28,"ny":28,"refTime":"2024-04-02T21:00:00:Z","depth":0,"parameterNumber":3,"parameterNumberName":"V-component_of_WINDS"},"data":[0,0,0,0,0,0,0,0,0,0,0,0,0,0,0,0,0,0,0,0,0,0,0,0,0,0,0,0,0,0,0,0,0,0,0,0,0,0,0,0,0,0,0,0,0,0,0,0,0,0,0,0,0,0,0,0,0,0,-4.1151,-4.1152,0,-4.1248,-4.1249,-4.125,-4.1259,-4.1258,-4.1257,-4.1256,-4.1354,-4.1357,-4.1361,0,0,0,0,0,0,0,0,0,0,0,0,0,-4.0975,-4.0978,-4.1151,-4.1152,-4.1154,-4.1248,-4.1249,-4.125,-4.1259,-4.1258,-4.1257,-4.1256,-4.1353,-4.1357,-4.1361,0,0,0,0,0,0,0,0,0,0,0,0,0,-4.106,-4.098,-4.1151,-4.1169,-4.1172,-4.1247,-4.1249,-4.1251,-4.1259,-4.1258,-4.1256,-4.1255,-4.1351,-4.1357,-4.1362,-4.1425,0,0,-4.1378,-4.138,0,0,0,0,0,0,0,0,-4.1055,-4.1066,-4.1165,-4.1168,-4.1171,-4.124,-4.1223,-4.1309,-4.126,-4.1226,-4.1256,-4.1254,-4.1317,-4.1325,-4.1347,-4.143,-4.1434,-4.1379,-4.1382,-4.1384,-4.1386,0,0,0,0,0,0,0,-4.1049,-4.1062,-4.1189,-4.1167,-4.117,-4.1173,-4.1183,-4.1239,-4.1279,-4.1229,-4.123,-4.1241,-4.1318,-4.1341,-4.1349,-4.1435,-4.1378,-4.1383,-4.1386,-4.1389,-4.1578,-4.158,0,0,0,0,0,0,-4.104,-4.1057,-4.1186,-4.1192,-4.1108,-4.1178,-4.1189,-4.1219,-4.1278,-4.1286,-4.1242,-4.1241,-4.1333,-4.1343,-4.1352,-4.1432,-4.1384,-4.1389,-4.1392,-4.1576,-4.1579,-4.1581,0,0,0,0,0,0,-4.1036,-4.1051,-4.1182,-4.1125,-4.1142,-4.1182,-4.1216,-4.1222,-4.1245,-4.1289,-4.1296,-4.1259,-4.1332,-4.1345,-4.1408,-4.1436,-4.1391,-4.1396,-4.1574,-4.1577,-4.158,-4.1591,0,0,0,0,0,0,-4.1031,-4.105,-4.1074,-4.1125,-4.1145,-4.1236,-4.1218,-4.1225,-4.1254,-4.1254,-4.1306,-4.1313,-4.1332,-4.14,-4.1413,-4.1442,-4.14,-4.1572,-4.1576,-4.1579,-4.1589,-4.1594,-4.1599,0,0,0,0,0,-4.1025,-4.1072,-4.1075,-4.109,-4.1176,-4.1237,-4.1248,-4.127,-4.1256,-4.1281,-4.131,-4.1311,-4.1431,-4.1406,-4.1421,-4.1452,-4.157,-4.1574,-4.1579,-4.1586,-4.1593,-4.1599,0,0,0,0,0,0,-4.1022,-4.1079,-4.1083,-4.1149,-4.1188,-4.1239,-4.127,-4.1276,-4.132,-4.1317,-4.1342,-4.1353,-4.1416,-4.144,-4.1412,-4.1518,-4.1499,-4.1506,-4.15,-4.1507,-4.1512,-4.1505,-4.1405,0,0,0,0,0,-4.1029,-4.1074,-4.1122,-4.1175,-4.1195,-4.123,-4.1257,-4.1271,-4.1312,-4.1329,-4.1362,-4.1402,-4.1449,-4.1479,-4.1524,-4.1592,-4.1605,-4.1622,-4.1627,-4.1631,-4.1637,-4.1677,-4.1685,-4.1594,-4.1594,-4.1594,0,0,-4.1044,-4.1081,-4.1108,-4.1176,-4.1208,-4.1255,-4.1243,-4.1293,-4.1328,-4.1336,-4.1398,-4.1424,-4.147,-4.1537,-4.1568,-4.1559,-4.1665,-4.1636,-4.1639,-4.1643,-4.1682,-4.1691,-4.1698,-4.1597,-4.1597,-4.1596,0,0,-4.1096,-4.1128,-4.1177,-4.121,-4.1259,-4.1282,-4.1294,-4.1345,-4.1362,-4.1425,-4.1433,-4.1475,-4.1555,-4.1589,-4.1616,-4.1684,-4.1687,-4.1698,-4.1725,-4.1763,-4.1771,-4.1777,-4.1803,-4.1812,-4.1704,-4.1704,-4.1704,0,-4.1108,-4.1179,-4.1201,-4.1251,-4.1282,-4.1293,-4.1344,-4.1374,-4.1436,-4.1457,-4.1447,-4.1549,-4.1581,-4.1657,-4.1673,-4.1695,-4.171,-4.1692,-4.1768,-4.1775,-4.1781,-4.1806,-4.1815,-4.1705,-4.1705,-4.1705,-4.1705,0,-4.1192,-4.1241,-4.1275,-4.1336,-4.137,-4.142,-4.1451,-4.1483,-4.1495,-4.1519,-4.1584,-4.1623,-4.1678,-4.1697,-4.1707,-4.1775,-4.1768,-4.1763,-4.1744,-4.179,-4.1814,-4.1824,-4.1706,-4.1706,-4.1706,-4.1705,0,0,-4.1243,-4.1318,-4.133,-4.1358,-4.1415,-4.1453,-4.1505,-4.1559,-4.1587,-4.163,-4.1674,-4.1743,-4.1739,-4.177,-4.1785,-4.1819,-4.1873,-4.181,-4.1811,-4.1821,-4.1951,-4.1956,-4.1966,-4.1875,-4.1877,-4.1879,-4.1948,0,-4.1302,-4.1394,-4.1418,-4.1496,-4.1543,-4.1555,-4.16,-4.164,-4.1665,-4.1709,-4.1736,-4.1785,-4.1775,-4.1795,-4.1829,-4.1859,-4.1899,-4.1854,-4.1918,-4.192,-4.1906,-4.1978,-4.1983,-4.2046,-4.1957,-4.1959,-4.196,0,-4.1383,-4.1429,-4.1512,-4.1565,-4.1585,-4.1625,-4.1679,-4.172,-4.1766,-4.1782,-4.1818,-4.1831,-4.1886,-4.1865,-4.1942,-4.1911,-4.1939,-4.1958,-4.1961,-4.1968,-4.1943,-4.1989,-4.2067,-4.2076,-4.1974,-4.1973,-4.1972,0,-4.1413,-4.1496,-4.1557,-4.1581,-4.1644,-4.1672,-4.17,-4.1744,-4.1777,-4.1823,-4.1844,-4.1896,-4.1925,-4.1965,-4.1992,-4.1974,-4.2068,-4.2048,-4.2083,-4.2083,-4.2102,-4.2101,-4.2187,-4.2119,-4.2119,-4.2119,-4.2118,0,-4.1477,-4.1528,-4.1572,-4.161,-4.1668,-4.1695,-4.1752,-4.178,-4.182,-4.1865,-4.1878,-4.1919,-4.1951,-4.1997,-4.2018,-4.208,-4.2093,-4.2108,-4.2113,-4.2107,-4.2105,-4.2126,-4.2123,-4.2121,-4.2121,-4.212,-4.212,0,-4.1521,-4.1553,-4.1621,-4.1675,-4.169,-4.1731,-4.1778,-4.1816,-4.1842,-4.1897,-4.1912,-4.1953,-4.2008,-4.2039,-4.2107,-4.2122,-4.2191,-4.2193,-4.2176,-4.2178,-4.2212,-4.2209,-4.2315,-4.2331,-4.2251,-4.2252,-4.2253,0,-4.156,-4.16,-4.1659,-4.169,-4.1719,-4.1768,-4.1801,-4.183,-4.1864,-4.1921,-4.1953,-4.2009,-4.2055,-4.2143,-4.2179,-4.2232,-4.2237,-4.227,-4.2245,-4.2238,-4.2239,-4.2237,-4.2242,-4.2275,-4.2275,-4.2276,-4.2276,0,-4.1626,-4.1641,-4.1688,-4.1742,-4.1782,-4.1826,-4.1869,-4.1893,-4.1929,-4.1968,-4.2025,-4.2061,-4.2132,-4.2188,-4.2245,-4.2274,-4.2282,-4.2284,-4.2296,-4.229,-4.2279,-4.2287,-4.2189,-4.2282,-4.2281,-4.2281,-4.228,-4.228,-4.167,-4.1707,-4.1755,-4.1809,-4.1845,-4.1885,-4.1924,-4.1956,-4.2004,-4.2065,-4.2079,-4.214,-4.2187,-4.2265,-4.2295,-4.2344,-4.2337,-4.2353,-4.2357,-4.2361,-4.2363,-4.2271,-4.2354,-4.2354,-4.2354,-4.2353,-4.2353,0,-4.1738,-4.177,-4.1819,-4.188,-4.1923,-4.1927,-4.1976,-4.2011,-4.2065,-4.2109,-4.2155,-4.2222,-4.2277,-4.2318,-4.2375,-4.2406,-4.2411,-4.242,-4.2418,-4.2425,-4.2365,-4.235,-4.2415,-4.2415,-4.2415,-4.2415,-4.2415,-4.2415,-4.1779,-4.1842,-4.1862,-4.1945,-4.1977,-4.2037,-4.2065,-4.2103,-4.2138,-4.2213,-4.2259,-4.2286,-4.2329,-4.239,-4.2441,-4.2452,-4.2473,-4.2481,-4.2493,-4.2435,-4.2429,-4.2423,-4.2409,-4.2485,-4.2485,-4.2549,-4.255,-4.255]}]]